LOCATION_NAME,SAMPLE COLLECTION TIME,DOSE EQUIVALENT RATE (nSv/h),GAMMA COUNT RATE R02 (CPM),GAMMA COUNT RATE R03 (CPM),GAMMA COUNT RATE R04 (CPM),GAMMA COUNT RATE R05 (CPM),GAMMA COUNT RATE R06 (CPM),GAMMA COUNT RATE R07 (CPM),GAMMA COUNT RATE R08 (CPM),GAMMA COUNT RATE R09 (CPM),STATUS
WI: LA CROSSE,01/01/2015 00:52:00,,2202.00,1278.00,342.00,172.00,108.00,127.00,71.00,32.00,APPROVED
WI: LA CROSSE,01/01/2015 01:52:00,,2235.00,1297.00,352.00,177.00,104.00,129.00,71.00,32.00,APPROVED
WI: LA CROSSE,01/01/2015 02:52:00,,2251.00,1312.00,349.00,180.00,110.00,131.00,74.00,31.00,APPROVED
WI: LA CROSSE,01/01/2015 03:52:00,,2264.00,1325.00,358.00,182.00,107.00,134.00,71.00,31.00,APPROVED
WI: LA CROSSE,01/01/2015 04:53:00,,2285.00,1334.00,363.00,184.00,109.00,132.00,75.00,32.00,APPROVED
WI: LA CROSSE,01/01/2015 05:53:00,,2299.00,1365.00,368.00,190.00,110.00,137.00,74.00,32.00,APPROVED
WI: LA CROSSE,01/01/2015 06:53:00,,2318.00,1385.00,372.00,190.00,112.00,138.00,75.00,33.00,APPROVED
WI: LA CROSSE,01/01/2015 07:53:00,,2329.00,1395.00,376.00,191.00,115.00,144.00,75.00,32.00,APPROVED
WI: LA CROSSE,01/01/2015 08:53:00,,2337.00,1407.00,383.00,196.00,115.00,144.00,74.00,34.00,APPROVED
WI: LA CROSSE,01/01/2015 09:54:00,,2365.00,1428.00,385.00,200.00,116.00,147.00,76.00,34.00,APPROVED
WI: LA CROSSE,01/01/2015 10:54:00,,2374.00,1442.00,390.00,205.00,115.00,149.00,79.00,32.00,APPROVED
WI: LA CROSSE,01/01/2015 11:54:00,,2391.00,1448.00,395.00,203.00,119.00,151.00,78.00,34.00,APPROVED
WI: LA CROSSE,01/01/2015 12:54:00,,2402.00,1462.00,392.00,206.00,121.00,150.00,82.00,35.00,APPROVED
WI: LA CROSSE,01/01/2015 13:54:00,,2414.00,1473.00,392.00,208.00,118.00,149.00,83.00,35.00,APPROVED
WI: LA CROSSE,01/01/2015 14:55:00,,2444.00,1482.00,396.00,209.00,122.00,150.00,83.00,34.00,APPROVED
WI: LA CROSSE,01/01/2015 15:55:00,,2426.00,1489.00,400.00,212.00,120.00,151.00,83.00,34.00,APPROVED
WI: LA CROSSE,01/01/2015 16:55:00,,2415.00,1484.00,394.00,216.00,118.00,151.00,85.00,35.00,APPROVED
WI: LA CROSSE,01/01/2015 17:55:00,,2429.00,1492.00,394.00,219.00,122.00,149.00,90.00,34.00,APPROVED
WI: LA CROSSE,01/01/2015 18:55:00,,2413.00,1481.00,389.00,223.00,120.00,150.00,88.00,35.00,APPROVED
WI: LA CROSSE,01/01/2015 19:56:00,,2397.00,1470.00,386.00,220.00,121.00,147.00,89.00,34.00,APPROVED
WI: LA CROSSE,01/01/2015 20:56:00,,2374.00,1451.00,376.00,214.00,119.00,145.00,88.00,35.00,APPROVED
WI: LA CROSSE,01/01/2015 21:56:00,,2366.00,1433.00,371.00,212.00,119.00,139.00,87.00,33.00,APPROVED
WI: LA CROSSE,01/01/2015 22:56:00,,2362.00,1431.00,372.00,208.00,117.00,137.00,86.00,35.00,APPROVED
WI: LA CROSSE,01/01/2015 23:56:00,,2348.00,1427.00,369.00,208.00,117.00,138.00,86.00,35.00,APPROVED
WI: LA CROSSE,01/02/2015 00:57:00,,2333.00,1418.00,370.00,211.00,115.00,138.00,87.00,35.00,APPROVED
WI: LA CROSSE,01/02/2015 01:57:00,,2305.00,1398.00,368.00,208.00,118.00,141.00,86.00,35.00,APPROVED
WI: LA CROSSE,01/02/2015 02:57:00,,2300.00,1404.00,359.00,203.00,117.00,138.00,84.00,34.00,APPROVED
WI: LA CROSSE,01/02/2015 03:57:00,,2297.00,1395.00,359.00,209.00,114.00,136.00,86.00,33.00,APPROVED
WI: LA CROSSE,01/02/2015 04:57:00,,2254.00,1378.00,358.00,205.00,115.00,136.00,86.00,36.00,APPROVED
WI: LA CROSSE,01/02/2015 05:58:00,,2209.00,1346.00,357.00,196.00,114.00,131.00,85.00,34.00,APPROVED
WI: LA CROSSE,01/02/2015 06:58:00,,2190.00,1308.00,347.00,189.00,108.00,130.00,78.00,34.00,APPROVED
WI: LA CROSSE,01/02/2015 07:58:00,,2168.00,1291.00,343.00,182.00,108.00,125.00,80.00,32.00,APPROVED
WI: LA CROSSE,01/02/2015 08:58:00,,2096.00,1219.00,324.00,170.00,100.00,117.00,76.00,30.00,APPROVED
WI: LA CROSSE,01/02/2015 09:58:00,,2064.00,1185.00,319.00,160.00,101.00,114.00,72.00,30.00,APPROVED
WI: LA CROSSE,01/02/2015 10:59:00,,2058.00,1185.00,319.00,159.00,99.00,114.00,71.00,31.00,APPROVED
WI: LA CROSSE,01/02/2015 11:59:00,,2048.00,1173.00,319.00,158.00,98.00,113.00,70.00,32.00,APPROVED
WI: LA CROSSE,01/02/2015 12:59:00,,2049.00,1168.00,317.00,157.00,96.00,111.00,70.00,31.00,APPROVED
WI: LA CROSSE,01/02/2015 13:59:00,,2054.00,1163.00,313.00,155.00,96.00,110.00,70.00,30.00,APPROVED
WI: LA CROSSE,01/02/2015 14:59:00,,2058.00,1179.00,315.00,156.00,98.00,112.00,71.00,29.00,APPROVED
WI: LA CROSSE,01/02/2015 16:13:00,,2052.00,1163.00,307.00,155.00,97.00,109.00,70.00,30.00,APPROVED
WI: LA CROSSE,01/02/2015 17:13:00,,2063.00,1188.00,313.00,164.00,98.00,111.00,72.00,30.00,APPROVED
WI: LA CROSSE,01/02/2015 18:13:00,,2072.00,1181.00,315.00,162.00,100.00,114.00,72.00,30.00,APPROVED
WI: LA CROSSE,01/02/2015 19:13:00,,2072.00,1196.00,321.00,165.00,102.00,115.00,74.00,30.00,APPROVED
WI: LA CROSSE,01/02/2015 20:14:00,,2071.00,1204.00,319.00,163.00,102.00,116.00,74.00,30.00,APPROVED
WI: LA CROSSE,01/02/2015 21:14:00,,2065.00,1189.00,320.00,165.00,99.00,114.00,75.00,31.00,APPROVED
WI: LA CROSSE,01/02/2015 22:14:00,,2062.00,1197.00,317.00,165.00,97.00,116.00,74.00,31.00,APPROVED
WI: LA CROSSE,01/02/2015 23:14:00,,2087.00,1201.00,319.00,165.00,100.00,113.00,74.00,30.00,APPROVED
WI: LA CROSSE,01/03/2015 00:14:00,,2104.00,1213.00,322.00,169.00,102.00,114.00,77.00,30.00,APPROVED
WI: LA CROSSE,01/03/2015 01:15:00,,2123.00,1232.00,327.00,172.00,102.00,119.00,76.00,30.00,APPROVED
WI: LA CROSSE,01/03/2015 02:15:00,,2116.00,1240.00,331.00,173.00,104.00,118.00,76.00,31.00,APPROVED
WI: LA CROSSE,01/03/2015 03:15:00,,2129.00,1241.00,328.00,175.00,104.00,120.00,77.00,31.00,APPROVED
WI: LA CROSSE,01/03/2015 04:15:00,,2183.00,1276.00,337.00,176.00,106.00,124.00,78.00,32.00,APPROVED
WI: LA CROSSE,01/03/2015 05:15:00,,2209.00,1305.00,344.00,188.00,108.00,126.00,79.00,32.00,APPROVED
WI: LA CROSSE,01/03/2015 06:16:00,,2262.00,1358.00,354.00,195.00,111.00,132.00,80.00,34.00,APPROVED
WI: LA CROSSE,01/03/2015 07:16:00,,2362.00,1449.00,375.00,211.00,117.00,144.00,88.00,35.00,APPROVED
WI: LA CROSSE,01/03/2015 08:16:00,,2607.00,1684.00,429.00,259.00,134.00,167.00,99.00,39.00,APPROVED
WI: LA CROSSE,01/03/2015 09:16:00,,2607.00,1702.00,446.00,274.00,140.00,174.00,102.00,38.00,APPROVED
WI: LA CROSSE,01/03/2015 10:16:00,,2441.00,1564.00,404.00,249.00,127.00,160.00,98.00,37.00,APPROVED
WI: LA CROSSE,01/03/2015 11:17:00,,2430.00,1533.00,398.00,237.00,128.00,155.00,95.00,37.00,APPROVED
WI: LA CROSSE,01/03/2015 12:17:00,,2464.00,1578.00,409.00,255.00,131.00,164.00,99.00,39.00,APPROVED
WI: LA CROSSE,01/03/2015 13:17:00,,2410.00,1534.00,396.00,244.00,128.00,156.00,96.00,38.00,APPROVED
WI: LA CROSSE,01/03/2015 14:17:00,,2366.00,1507.00,395.00,242.00,125.00,156.00,95.00,37.00,APPROVED
WI: LA CROSSE,01/03/2015 15:18:00,,2371.00,1518.00,391.00,240.00,126.00,156.00,95.00,39.00,APPROVED
WI: LA CROSSE,01/03/2015 16:18:00,,2370.00,1533.00,392.00,248.00,128.00,157.00,95.00,39.00,APPROVED
WI: LA CROSSE,01/03/2015 17:18:00,,2395.00,1554.00,401.00,255.00,130.00,159.00,97.00,39.00,APPROVED
WI: LA CROSSE,01/03/2015 18:18:00,,2390.00,1564.00,409.00,264.00,134.00,165.00,98.00,39.00,APPROVED
WI: LA CROSSE,01/03/2015 19:18:00,,2381.00,1551.00,398.00,261.00,130.00,162.00,98.00,40.00,APPROVED
WI: LA CROSSE,01/03/2015 20:19:00,,2328.00,1503.00,393.00,251.00,127.00,155.00,98.00,40.00,APPROVED
WI: LA CROSSE,01/03/2015 21:19:00,,2323.00,1501.00,385.00,244.00,125.00,155.00,95.00,41.00,APPROVED
WI: LA CROSSE,01/03/2015 22:19:00,,2345.00,1504.00,391.00,250.00,128.00,155.00,96.00,39.00,APPROVED
WI: LA CROSSE,01/03/2015 23:19:00,,2363.00,1524.00,388.00,251.00,126.00,155.00,96.00,39.00,APPROVED
WI: LA CROSSE,01/04/2015 00:19:00,,2371.00,1544.00,397.00,252.00,129.00,159.00,97.00,38.00,APPROVED
WI: LA CROSSE,01/04/2015 01:20:00,,2380.00,1541.00,397.00,253.00,128.00,162.00,96.00,40.00,APPROVED
WI: LA CROSSE,01/04/2015 02:20:00,,2373.00,1528.00,395.00,252.00,127.00,155.00,96.00,38.00,APPROVED
WI: LA CROSSE,01/04/2015 03:20:00,,2377.00,1527.00,397.00,250.00,128.00,159.00,98.00,40.00,APPROVED
WI: LA CROSSE,01/04/2015 04:20:00,,2357.00,1526.00,390.00,247.00,128.00,157.00,98.00,39.00,APPROVED
WI: LA CROSSE,01/04/2015 05:20:00,,2388.00,1529.00,392.00,248.00,129.00,160.00,96.00,40.00,APPROVED
WI: LA CROSSE,01/04/2015 06:21:00,,2432.00,1560.00,397.00,254.00,131.00,159.00,97.00,37.00,APPROVED
WI: LA CROSSE,01/04/2015 07:21:00,,2316.00,1475.00,390.00,239.00,123.00,154.00,92.00,36.00,APPROVED
WI: LA CROSSE,01/04/2015 08:21:00,,2221.00,1356.00,359.00,201.00,115.00,139.00,83.00,34.00,APPROVED
WI: LA CROSSE,01/04/2015 09:21:00,,2256.00,1365.00,367.00,191.00,113.00,136.00,78.00,32.00,APPROVED
WI: LA CROSSE,01/04/2015 10:21:00,,2274.00,1369.00,369.00,193.00,110.00,138.00,79.00,32.00,APPROVED
WI: LA CROSSE,01/04/2015 11:22:00,,2255.00,1338.00,363.00,188.00,108.00,131.00,77.00,32.00,APPROVED
WI: LA CROSSE,01/04/2015 12:22:00,,2213.00,1314.00,359.00,182.00,108.00,132.00,72.00,32.00,APPROVED
WI: LA CROSSE,01/04/2015 13:22:00,,2135.00,1252.00,342.00,173.00,105.00,129.00,68.00,31.00,APPROVED
WI: LA CROSSE,01/04/2015 14:22:00,,2057.00,1186.00,328.00,162.00,98.00,123.00,63.00,30.00,APPROVED
WI: LA CROSSE,01/04/2015 15:22:00,,2021.00,1149.00,319.00,151.00,96.00,121.00,59.00,31.00,APPROVED
WI: LA CROSSE,01/04/2015 16:23:00,,1986.00,1117.00,306.00,147.00,95.00,118.00,60.00,30.00,APPROVED
WI: LA CROSSE,01/04/2015 17:23:00,,1974.00,1109.00,305.00,149.00,93.00,118.00,58.00,30.00,APPROVED
WI: LA CROSSE,01/04/2015 18:23:00,,1962.00,1104.00,301.00,145.00,94.00,113.00,56.00,28.00,APPROVED
WI: LA CROSSE,01/04/2015 19:23:00,,1960.00,1094.00,302.00,147.00,92.00,113.00,56.00,29.00,APPROVED
WI: LA CROSSE,01/04/2015 20:23:00,,1958.00,1094.00,303.00,146.00,92.00,114.00,56.00,29.00,APPROVED
WI: LA CROSSE,01/04/2015 21:24:00,,1961.00,1081.00,300.00,143.00,92.00,114.00,56.00,28.00,APPROVED
WI: LA CROSSE,01/04/2015 22:24:00,,1944.00,1084.00,297.00,142.00,91.00,112.00,56.00,29.00,APPROVED
WI: LA CROSSE,01/04/2015 23:24:00,,1948.00,1079.00,295.00,142.00,93.00,114.00,55.00,30.00,APPROVED
WI: LA CROSSE,01/05/2015 00:24:00,,1921.00,1076.00,300.00,142.00,91.00,114.00,53.00,29.00,APPROVED
WI: LA CROSSE,01/05/2015 01:24:00,,1939.00,1076.00,299.00,140.00,91.00,118.00,51.00,30.00,APPROVED
WI: LA CROSSE,01/05/2015 02:25:00,,1935.00,1081.00,300.00,144.00,92.00,120.00,50.00,29.00,APPROVED
WI: LA CROSSE,01/05/2015 03:25:00,,1964.00,1087.00,306.00,143.00,93.00,116.00,51.00,30.00,APPROVED
WI: LA CROSSE,01/05/2015 04:25:00,,1961.00,1091.00,303.00,147.00,93.00,120.00,50.00,30.00,APPROVED
WI: LA CROSSE,01/05/2015 05:25:00,,1969.00,1101.00,305.00,147.00,93.00,117.00,52.00,29.00,APPROVED
WI: LA CROSSE,01/05/2015 06:25:00,,1978.00,1105.00,309.00,145.00,95.00,119.00,51.00,28.00,APPROVED
WI: LA CROSSE,01/05/2015 07:26:00,,1982.00,1111.00,307.00,146.00,94.00,121.00,50.00,31.00,APPROVED
WI: LA CROSSE,01/05/2015 08:26:00,,1989.00,1112.00,311.00,147.00,96.00,122.00,51.00,30.00,APPROVED
WI: LA CROSSE,01/05/2015 09:26:00,,1967.00,1107.00,307.00,145.00,94.00,122.00,49.00,29.00,APPROVED
WI: LA CROSSE,01/05/2015 10:26:00,,1983.00,1108.00,310.00,144.00,93.00,122.00,51.00,28.00,APPROVED
WI: LA CROSSE,01/05/2015 11:26:00,,1984.00,1119.00,312.00,149.00,93.00,122.00,50.00,29.00,APPROVED
WI: LA CROSSE,01/05/2015 12:27:00,,1980.00,1130.00,318.00,145.00,93.00,128.00,50.00,31.00,APPROVED
WI: LA CROSSE,01/05/2015 13:27:00,,1994.00,1116.00,314.00,148.00,95.00,127.00,50.00,30.00,APPROVED
WI: LA CROSSE,01/05/2015 14:27:00,,1994.00,1123.00,316.00,149.00,94.00,126.00,48.00,31.00,APPROVED
WI: LA CROSSE,01/05/2015 15:27:00,,2000.00,1127.00,320.00,150.00,96.00,125.00,51.00,30.00,APPROVED
WI: LA CROSSE,01/05/2015 16:28:00,,2021.00,1134.00,318.00,148.00,96.00,125.00,50.00,30.00,APPROVED
WI: LA CROSSE,01/05/2015 17:28:00,,2024.00,1142.00,314.00,150.00,96.00,121.00,49.00,30.00,APPROVED
WI: LA CROSSE,01/05/2015 18:28:00,,2019.00,1137.00,313.00,148.00,94.00,123.00,54.00,30.00,APPROVED
WI: LA CROSSE,01/05/2015 19:28:00,,2026.00,1141.00,314.00,152.00,95.00,122.00,56.00,29.00,APPROVED
WI: LA CROSSE,01/05/2015 20:28:00,,2030.00,1147.00,320.00,154.00,92.00,122.00,55.00,30.00,APPROVED
WI: LA CROSSE,01/05/2015 21:29:00,,2031.00,1137.00,313.00,151.00,97.00,121.00,58.00,29.00,APPROVED
WI: LA CROSSE,01/05/2015 22:29:00,,2016.00,1143.00,315.00,153.00,95.00,116.00,59.00,30.00,APPROVED
WI: LA CROSSE,01/05/2015 23:29:00,,2022.00,1139.00,310.00,152.00,96.00,119.00,58.00,31.00,APPROVED
WI: LA CROSSE,01/06/2015 00:29:00,,2059.00,1176.00,326.00,156.00,98.00,121.00,61.00,29.00,APPROVED
WI: LA CROSSE,01/06/2015 01:29:00,,2132.00,1247.00,348.00,167.00,101.00,129.00,63.00,30.00,APPROVED
WI: LA CROSSE,01/06/2015 02:30:00,,2165.00,1265.00,351.00,171.00,104.00,131.00,67.00,32.00,APPROVED
WI: LA CROSSE,01/06/2015 03:30:00,,2202.00,1293.00,365.00,181.00,107.00,132.00,70.00,32.00,APPROVED
WI: LA CROSSE,01/06/2015 04:30:00,,2199.00,1296.00,356.00,180.00,107.00,136.00,70.00,31.00,APPROVED
WI: LA CROSSE,01/06/2015 05:30:00,,2157.00,1259.00,349.00,175.00,103.00,132.00,67.00,30.00,APPROVED
WI: LA CROSSE,01/06/2015 06:30:00,,2080.00,1202.00,329.00,164.00,101.00,122.00,67.00,31.00,APPROVED
WI: LA CROSSE,01/06/2015 07:31:00,,2054.00,1178.00,321.00,161.00,96.00,119.00,63.00,32.00,APPROVED
WI: LA CROSSE,01/06/2015 08:31:00,,2037.00,1156.00,316.00,153.00,95.00,118.00,63.00,29.00,APPROVED
WI: LA CROSSE,01/06/2015 09:31:00,,2047.00,1150.00,323.00,154.00,95.00,121.00,59.00,30.00,APPROVED
WI: LA CROSSE,01/06/2015 10:31:00,,2037.00,1168.00,325.00,160.00,97.00,122.00,58.00,31.00,APPROVED
WI: LA CROSSE,01/06/2015 11:31:00,,2058.00,1180.00,328.00,161.00,100.00,124.00,59.00,30.00,APPROVED
WI: LA CROSSE,01/06/2015 12:32:00,,2077.00,1192.00,336.00,161.00,100.00,128.00,61.00,30.00,APPROVED
WI: LA CROSSE,01/06/2015 13:32:00,,2083.00,1212.00,335.00,168.00,99.00,132.00,60.00,30.00,APPROVED
WI: LA CROSSE,01/06/2015 14:32:00,,2100.00,1225.00,340.00,166.00,101.00,133.00,59.00,31.00,APPROVED
WI: LA CROSSE,01/06/2015 15:32:00,,2111.00,1246.00,351.00,165.00,103.00,135.00,61.00,31.00,APPROVED
WI: LA CROSSE,01/06/2015 16:32:00,,2138.00,1262.00,354.00,174.00,103.00,136.00,61.00,33.00,APPROVED
WI: LA CROSSE,01/06/2015 17:33:00,,2122.00,1257.00,346.00,170.00,104.00,135.00,64.00,31.00,APPROVED
WI: LA CROSSE,01/06/2015 18:33:00,,2108.00,1231.00,339.00,173.00,104.00,128.00,66.00,29.00,APPROVED
WI: LA CROSSE,01/06/2015 19:33:00,,2062.00,1194.00,325.00,165.00,99.00,124.00,65.00,31.00,APPROVED
WI: LA CROSSE,01/06/2015 20:33:00,,2029.00,1159.00,316.00,157.00,97.00,117.00,65.00,30.00,APPROVED
WI: LA CROSSE,01/06/2015 21:33:00,,2011.00,1153.00,308.00,153.00,95.00,113.00,62.00,29.00,APPROVED
WI: LA CROSSE,01/06/2015 22:34:00,,2020.00,1145.00,317.00,154.00,96.00,116.00,65.00,30.00,APPROVED
WI: LA CROSSE,01/06/2015 23:34:00,,2040.00,1161.00,313.00,157.00,99.00,117.00,63.00,31.00,APPROVED
WI: LA CROSSE,01/07/2015 00:34:00,,2050.00,1171.00,322.00,157.00,98.00,121.00,66.00,29.00,APPROVED
WI: LA CROSSE,01/07/2015 01:34:00,,2088.00,1194.00,325.00,162.00,98.00,125.00,63.00,30.00,APPROVED
WI: LA CROSSE,01/07/2015 02:34:00,,2064.00,1193.00,328.00,164.00,98.00,122.00,66.00,30.00,APPROVED
WI: LA CROSSE,01/07/2015 03:35:00,,2062.00,1189.00,326.00,161.00,98.00,122.00,62.00,30.00,APPROVED
WI: LA CROSSE,01/07/2015 04:35:00,,1988.00,1133.00,318.00,157.00,96.00,119.00,58.00,29.00,APPROVED
WI: LA CROSSE,01/07/2015 05:35:00,,1979.00,1119.00,312.00,151.00,93.00,120.00,56.00,30.00,APPROVED
WI: LA CROSSE,01/07/2015 06:35:00,,1989.00,1123.00,313.00,149.00,94.00,122.00,56.00,31.00,APPROVED
WI: LA CROSSE,01/07/2015 07:35:00,,1997.00,1121.00,314.00,152.00,95.00,119.00,54.00,28.00,APPROVED
WI: LA CROSSE,01/07/2015 08:36:00,,1986.00,1120.00,313.00,150.00,94.00,122.00,55.00,29.00,APPROVED
WI: LA CROSSE,01/07/2015 09:36:00,,1952.00,1109.00,308.00,150.00,96.00,122.00,56.00,31.00,APPROVED
WI: LA CROSSE,01/07/2015 10:36:00,,1935.00,1089.00,309.00,143.00,93.00,120.00,52.00,30.00,APPROVED
WI: LA CROSSE,01/07/2015 11:36:00,,1923.00,1080.00,304.00,144.00,92.00,119.00,53.00,29.00,APPROVED
WI: LA CROSSE,01/07/2015 12:36:00,,1909.00,1064.00,298.00,139.00,92.00,117.00,49.00,28.00,APPROVED
WI: LA CROSSE,01/07/2015 13:37:00,,1886.00,1043.00,297.00,141.00,90.00,117.00,48.00,28.00,APPROVED
WI: LA CROSSE,01/07/2015 14:37:00,,1875.00,1046.00,292.00,139.00,89.00,115.00,46.00,28.00,APPROVED
WI: LA CROSSE,01/07/2015 15:37:00,,1876.00,1040.00,295.00,136.00,87.00,117.00,46.00,28.00,APPROVED
WI: LA CROSSE,01/07/2015 16:37:00,,1887.00,1040.00,293.00,136.00,89.00,115.00,45.00,29.00,APPROVED
WI: LA CROSSE,01/07/2015 17:37:00,,1879.00,1044.00,294.00,136.00,88.00,115.00,47.00,28.00,APPROVED
WI: LA CROSSE,01/07/2015 18:38:00,,1908.00,1059.00,293.00,138.00,89.00,116.00,48.00,28.00,APPROVED
WI: LA CROSSE,01/07/2015 19:38:00,,1909.00,1051.00,296.00,138.00,90.00,113.00,51.00,28.00,APPROVED
WI: LA CROSSE,01/07/2015 20:38:00,,1901.00,1050.00,295.00,137.00,91.00,113.00,50.00,30.00,APPROVED
WI: LA CROSSE,01/07/2015 21:38:00,,1910.00,1052.00,293.00,136.00,89.00,112.00,52.00,30.00,APPROVED
WI: LA CROSSE,01/07/2015 22:38:00,,1921.00,1058.00,295.00,142.00,90.00,111.00,51.00,28.00,APPROVED
WI: LA CROSSE,01/07/2015 23:39:00,,1919.00,1050.00,292.00,139.00,88.00,111.00,49.00,30.00,APPROVED
WI: LA CROSSE,01/08/2015 00:39:00,,1895.00,1054.00,293.00,136.00,91.00,114.00,47.00,28.00,APPROVED
WI: LA CROSSE,01/08/2015 01:39:00,,1918.00,1061.00,297.00,139.00,88.00,118.00,49.00,29.00,APPROVED
WI: LA CROSSE,01/08/2015 02:39:00,,1918.00,1062.00,297.00,143.00,90.00,117.00,49.00,30.00,APPROVED
WI: LA CROSSE,01/08/2015 03:39:00,,1942.00,1084.00,305.00,142.00,90.00,120.00,47.00,30.00,APPROVED
WI: LA CROSSE,01/08/2015 04:40:00,,1941.00,1092.00,306.00,146.00,92.00,119.00,51.00,31.00,APPROVED
WI: LA CROSSE,01/08/2015 05:40:00,,1962.00,1112.00,314.00,143.00,95.00,121.00,50.00,29.00,APPROVED
WI: LA CROSSE,01/08/2015 06:40:00,,1979.00,1118.00,315.00,147.00,96.00,124.00,47.00,30.00,APPROVED
WI: LA CROSSE,01/08/2015 07:40:00,,1991.00,1123.00,318.00,147.00,94.00,131.00,48.00,30.00,APPROVED
WI: LA CROSSE,01/08/2015 08:40:00,,1998.00,1137.00,321.00,148.00,96.00,131.00,49.00,30.00,APPROVED
WI: LA CROSSE,01/08/2015 09:41:00,,2015.00,1136.00,319.00,151.00,95.00,128.00,50.00,31.00,APPROVED
WI: LA CROSSE,01/08/2015 10:41:00,,2020.00,1140.00,324.00,147.00,95.00,125.00,51.00,30.00,APPROVED
WI: LA CROSSE,01/08/2015 11:41:00,,2016.00,1145.00,322.00,154.00,96.00,129.00,50.00,30.00,APPROVED
WI: LA CROSSE,01/08/2015 12:41:00,,2011.00,1141.00,322.00,150.00,93.00,126.00,49.00,30.00,APPROVED
WI: LA CROSSE,01/08/2015 13:41:00,,1991.00,1133.00,318.00,148.00,95.00,126.00,49.00,31.00,APPROVED
WI: LA CROSSE,01/08/2015 14:42:00,,2010.00,1134.00,316.00,148.00,94.00,126.00,51.00,29.00,APPROVED
WI: LA CROSSE,01/08/2015 15:42:00,,2123.00,1224.00,342.00,158.00,99.00,135.00,60.00,29.00,APPROVED
WI: LA CROSSE,01/08/2015 16:42:00,,2148.00,1243.00,349.00,166.00,97.00,133.00,59.00,31.00,APPROVED
WI: LA CROSSE,01/08/2015 17:42:00,,2128.00,1233.00,340.00,160.00,101.00,134.00,59.00,31.00,APPROVED
WI: LA CROSSE,01/08/2015 18:43:00,,2102.00,1209.00,333.00,161.00,99.00,128.00,59.00,31.00,APPROVED
WI: LA CROSSE,01/08/2015 19:43:00,,2117.00,1227.00,337.00,163.00,102.00,130.00,61.00,30.00,APPROVED
WI: LA CROSSE,01/08/2015 20:43:00,,2180.00,1279.00,351.00,174.00,102.00,135.00,63.00,32.00,APPROVED
WI: LA CROSSE,01/08/2015 21:43:00,,2236.00,1331.00,364.00,179.00,105.00,135.00,66.00,31.00,APPROVED
WI: LA CROSSE,01/08/2015 22:43:00,,2256.00,1345.00,364.00,184.00,105.00,137.00,72.00,32.00,APPROVED
WI: LA CROSSE,01/08/2015 23:44:00,,2194.00,1295.00,346.00,177.00,102.00,129.00,71.00,32.00,APPROVED
WI: LA CROSSE,01/09/2015 00:44:00,,2123.00,1244.00,336.00,169.00,100.00,127.00,69.00,30.00,APPROVED
WI: LA CROSSE,01/09/2015 01:44:00,,2075.00,1195.00,327.00,160.00,98.00,121.00,67.00,30.00,APPROVED
WI: LA CROSSE,01/09/2015 02:44:00,,2027.00,1157.00,318.00,160.00,96.00,119.00,60.00,30.00,APPROVED
WI: LA CROSSE,01/09/2015 03:44:00,,2010.00,1152.00,316.00,153.00,96.00,120.00,60.00,29.00,APPROVED
WI: LA CROSSE,01/09/2015 04:45:00,,1991.00,1141.00,315.00,151.00,95.00,117.00,59.00,29.00,APPROVED
WI: LA CROSSE,01/09/2015 05:45:00,,2010.00,1143.00,315.00,152.00,95.00,120.00,61.00,30.00,APPROVED
WI: LA CROSSE,01/09/2015 06:45:00,,1961.00,1121.00,308.00,150.00,92.00,119.00,58.00,30.00,APPROVED
WI: LA CROSSE,01/09/2015 07:45:00,,1937.00,1098.00,301.00,147.00,91.00,114.00,55.00,28.00,APPROVED
WI: LA CROSSE,01/09/2015 08:45:00,,1922.00,1072.00,296.00,141.00,89.00,109.00,54.00,29.00,APPROVED
WI: LA CROSSE,01/09/2015 09:46:00,,1921.00,1064.00,299.00,145.00,89.00,113.00,55.00,28.00,APPROVED
WI: LA CROSSE,01/09/2015 10:46:00,,1906.00,1061.00,296.00,139.00,87.00,112.00,52.00,28.00,APPROVED
WI: LA CROSSE,01/09/2015 11:46:00,,1914.00,1065.00,298.00,136.00,88.00,113.00,52.00,30.00,APPROVED
WI: LA CROSSE,01/09/2015 12:46:00,,1911.00,1064.00,298.00,140.00,91.00,115.00,50.00,28.00,APPROVED
WI: LA CROSSE,01/09/2015 13:46:00,,1902.00,1065.00,300.00,143.00,92.00,116.00,50.00,29.00,APPROVED
WI: LA CROSSE,01/09/2015 14:47:00,,1912.00,1052.00,292.00,142.00,88.00,117.00,51.00,30.00,APPROVED
WI: LA CROSSE,01/09/2015 15:47:00,,1908.00,1062.00,298.00,138.00,90.00,117.00,49.00,29.00,APPROVED
WI: LA CROSSE,01/09/2015 16:32:00,,1947.00,1095.00,305.00,142.00,92.00,116.00,52.00,28.00,APPROVED
WI: LA CROSSE,01/09/2015 17:39:00,,1918.00,1054.00,295.00,137.00,89.00,111.00,52.00,28.00,APPROVED
WI: LA CROSSE,01/09/2015 18:39:00,,1932.00,1078.00,295.00,140.00,88.00,113.00,53.00,26.00,APPROVED
WI: LA CROSSE,01/09/2015 19:39:00,,1932.00,1080.00,295.00,142.00,88.00,111.00,54.00,29.00,APPROVED
WI: LA CROSSE,01/09/2015 20:39:00,,1921.00,1070.00,295.00,141.00,90.00,113.00,56.00,28.00,APPROVED
WI: LA CROSSE,01/09/2015 21:40:00,,1926.00,1074.00,291.00,140.00,89.00,110.00,56.00,28.00,APPROVED
WI: LA CROSSE,01/09/2015 22:40:00,,1933.00,1068.00,290.00,140.00,90.00,113.00,54.00,30.00,APPROVED
WI: LA CROSSE,01/09/2015 23:40:00,,1932.00,1076.00,294.00,139.00,90.00,112.00,54.00,29.00,APPROVED
WI: LA CROSSE,01/10/2015 00:40:00,,1932.00,1081.00,298.00,145.00,89.00,114.00,54.00,29.00,APPROVED
WI: LA CROSSE,01/10/2015 01:40:00,,1940.00,1090.00,301.00,142.00,90.00,115.00,53.00,30.00,APPROVED
WI: LA CROSSE,01/10/2015 02:41:00,,1963.00,1096.00,298.00,142.00,90.00,115.00,55.00,28.00,APPROVED
WI: LA CROSSE,01/10/2015 03:41:00,,1985.00,1124.00,306.00,148.00,91.00,116.00,54.00,29.00,APPROVED
WI: LA CROSSE,01/10/2015 04:41:00,,1999.00,1131.00,315.00,149.00,92.00,120.00,56.00,31.00,APPROVED
WI: LA CROSSE,01/10/2015 05:41:00,,2011.00,1141.00,316.00,155.00,93.00,119.00,55.00,30.00,APPROVED
WI: LA CROSSE,01/10/2015 06:41:00,,2020.00,1144.00,322.00,151.00,95.00,123.00,55.00,29.00,APPROVED
WI: LA CROSSE,01/10/2015 07:42:00,,2026.00,1155.00,322.00,153.00,97.00,125.00,58.00,29.00,APPROVED
WI: LA CROSSE,01/10/2015 08:42:00,,2029.00,1159.00,322.00,157.00,95.00,127.00,56.00,29.00,APPROVED
WI: LA CROSSE,01/10/2015 09:42:00,,2039.00,1166.00,322.00,155.00,96.00,126.00,55.00,31.00,APPROVED
WI: LA CROSSE,01/10/2015 10:42:00,,2041.00,1177.00,329.00,155.00,94.00,126.00,55.00,29.00,APPROVED
WI: LA CROSSE,01/10/2015 11:42:00,,2060.00,1187.00,332.00,154.00,98.00,126.00,57.00,31.00,APPROVED
WI: LA CROSSE,01/10/2015 12:43:00,,2074.00,1186.00,333.00,157.00,95.00,128.00,57.00,29.00,APPROVED
WI: LA CROSSE,01/10/2015 13:43:00,,2055.00,1174.00,326.00,153.00,97.00,128.00,57.00,31.00,APPROVED
WI: LA CROSSE,01/10/2015 14:43:00,,2068.00,1182.00,329.00,156.00,99.00,131.00,57.00,30.00,APPROVED
WI: LA CROSSE,01/10/2015 15:43:00,,2074.00,1202.00,331.00,157.00,100.00,131.00,55.00,32.00,APPROVED
WI: LA CROSSE,01/10/2015 16:43:00,,2079.00,1194.00,334.00,158.00,95.00,129.00,55.00,30.00,APPROVED
WI: LA CROSSE,01/10/2015 17:44:00,,2080.00,1187.00,326.00,158.00,97.00,127.00,58.00,29.00,APPROVED
WI: LA CROSSE,01/10/2015 18:44:00,,2068.00,1190.00,326.00,160.00,97.00,124.00,60.00,30.00,APPROVED
WI: LA CROSSE,01/10/2015 19:44:00,,2058.00,1173.00,321.00,157.00,96.00,118.00,61.00,30.00,APPROVED
WI: LA CROSSE,01/10/2015 20:44:00,,2048.00,1175.00,315.00,158.00,95.00,117.00,67.00,30.00,APPROVED
WI: LA CROSSE,01/10/2015 21:44:00,,2071.00,1176.00,312.00,162.00,96.00,115.00,66.00,30.00,APPROVED
WI: LA CROSSE,01/10/2015 22:45:00,,2064.00,1182.00,317.00,161.00,95.00,117.00,64.00,30.00,APPROVED